Flag for U.S.A. Weather past 2 weeks in Shreveport, Louisiana, U.S.A.

Now
71 °F

Light rain. Fog.


Feels Like: 68 °F
Forecast: 70 / 82 °F
Wind: 7 mph from Southeast

Location: Shreveport Regional Airport

Current Time: Jul 31, 2014 at 11:50:12 AM

Latest Report: Jul 31, 2014 at 10:56 AM


Visibility: 6 mi

Pressure: 30.03 "Hg

Humidity: 90%

Dew point: 68 °F

Location of ShreveportLocation

Historic Weather in Shreveport — Graph

°F

Shreveport temperature yesterday

Maximum temperature yesterday: 88 °F (at 1:56 PM)
Minimum temperature yesterday: 71 °F (at 5:56 AM)
Average temperature yesterday: 79 °F

Past Weeks' High & Low Weather Summary

 TemperatureHumidityPressure
High95 °F (Jul 27, 4:56 PM)97% (Jul 24, 5:56 AM)30.11 "Hg (Jul 24, 5:56 AM)
Low65 °F (Jul 21, 3:56 AM)36% (Jul 30, 2:56 PM)29.88 "Hg (Jul 18, 3:56 AM)
Average78 °F74%30.01 "Hg
* Reported Jul 16 9:56 AM — Jul 31 9:56 AM, Shreveport, Weather by CustomWeather, © 2014

Note: Actual official high and low records may vary slightly from our data, if they occured in-between our weather recording intervals... More about our weather records

Advertising

Shreveport weather history for previous 24 hours

 ConditionsComfort  
Time TempWeatherWind HumidityBarometerVisibility
9:56 AM
Jul 31
70 °FLight rain. Fog.No wind93%30.04 "Hg6 mi
8:56 AM70 °FLight rain. Cloudy.3 mph90%30.03 "Hg9 mi
7:56 AM70 °FLight rain. More clouds than sun.6 mph90%30.02 "Hg9 mi
7:03 AM70 °FLight rain. Fog.5 mph88%30.03 "Hg4 mi
6:56 AM70 °FRain. Fog.5 mph87%30.02 "Hg2 mi
5:56 AM70 °FLight rain. Mostly cloudy.7 mph87%30.00 "Hg10 mi
4:56 AM72 °FLight rain. Mostly cloudy.8 mph78%30.00 "Hg10 mi
3:56 AM74 °FOvercast.6 mph71%30.00 "Hg10 mi
2:56 AM74 °FMostly cloudy.7 mph71%29.98 "Hg10 mi
1:56 AM75 °FMostly cloudy.8 mph69%29.99 "Hg10 mi
12:56 AM76 °FPassing clouds.8 mph67%30.00 "Hg10 mi
11:56 PM
Jul 30
76 °FPartly cloudy.9 mph67%30.00 "Hg10 mi
10:56 PM77 °FPassing clouds.10 mph66%29.99 "Hg10 mi
9:56 PM78 °FOvercast.14 mph62%30.00 "Hg10 mi
8:56 PM79 °FPartly sunny.10 mph65%29.98 "Hg10 mi
7:56 PM80 °FPartly sunny.12 mph62%29.99 "Hg10 mi
6:56 PM83 °FPartly sunny.9 mph51%29.99 "Hg10 mi
5:56 PM85 °FPartly sunny.9 mph46%30.00 "Hg10 mi
4:56 PM85 °FMostly cloudy.6 mph43%30.01 "Hg10 mi
3:56 PM87 °FMostly cloudy.6 mph40%30.02 "Hg10 mi
2:56 PM87 °FBroken clouds.No wind36%30.04 "Hg10 mi
1:56 PM88 °FBroken clouds.5 mph38%30.06 "Hg10 mi
12:56 PM86 °FPartly sunny.7 mph42%30.07 "Hg10 mi
11:56 AM84 °FBroken clouds.10 mph46%30.09 "Hg10 mi
Weather by CustomWeather, © 2014

See weather overviewHow to use our weather pages